iso_date,epoch_date,Year,Hour,Min,DOY,POS_DOY,Lat,Lon,BP,Ts,Ta,has_bp,has_ts,has_ta,BuoyID,Buoy_Type,Buoy_Owner,Logistics,Hemisphere
2021-06-10T01:00:02Z,1623286803,2021,1,0,161.0417,161.0417,73.00424,-150.02804,1008.3,-999.00,-999.0,yes,no,no,300534060525340,ITB,USIABP,Utqiagvik,North
2021-06-10T01:59:57Z,1623290397,2021,2,0,161.0833,161.0833,73.00552,-150.0387,1008.4,-999.00,-999.0,yes,no,no,300534060525340,ITB,USIABP,Utqiagvik,North
2021-06-10T03:00:00Z,1623294000,2021,3,0,161.125,161.125,73.00657,-150.04807,1008.3,-999.00,-999.0,yes,no,no,300534060525340,ITB,USIABP,Utqiagvik,North
2021-06-10T04:00:02Z,1623297603,2021,4,0,161.1667,161.1667,73.00737,-150.05675,1008.1,-999.00,-999.0,yes,no,no,300534060525340,ITB,USIABP,Utqiagvik,North
2021-06-10T04:59:57Z,1623301197,2021,5,0,161.2083,161.2083,73.00789,-150.06547,1008.2,-999.00,-999.0,yes,no,no,300534060525340,ITB,USIABP,Utqiagvik,North
2021-06-10T06:00:00Z,1623304800,2021,6,0,161.25,161.25,73.0081,-150.07474,1008.2,-999.00,-999.0,yes,no,no,300534060525340,ITB,USIABP,Utqiagvik,North
2021-06-10T07:00:02Z,1623308403,2021,7,0,161.2917,161.2917,73.00817,-150.08501,1008.4,-999.00,-999.0,yes,no,no,300534060525340,ITB,USIABP,Utqiagvik,North
2021-06-10T07:59:57Z,1623311997,2021,8,0,161.3333,161.3333,73.00829,-150.09622,1008.4,-999.00,-999.0,yes,no,no,300534060525340,ITB,USIABP,Utqiagvik,North
2021-06-10T09:00:00Z,1623315600,2021,9,0,161.375,161.375,73.00859,-150.10782,1008.4,-999.00,-999.0,yes,no,no,300534060525340,ITB,USIABP,Utqiagvik,North
2021-06-10T10:00:02Z,1623319203,2021,10,0,161.4167,161.4167,73.00916,-150.11963,1008.7,-999.00,-999.0,yes,no,no,300534060525340,ITB,USIABP,Utqiagvik,North
2021-06-10T10:59:57Z,1623322797,2021,11,0,161.4583,161.4583,73.00998,-150.13083,1008.7,-999.00,-999.0,yes,no,no,300534060525340,ITB,USIABP,Utqiagvik,North
2021-06-10T12:00:00Z,1623326400,2021,12,0,161.5,161.5,73.01099,-150.1413,1008.6,-999.00,-999.0,yes,no,no,300534060525340,ITB,USIABP,Utqiagvik,North
2021-06-10T13:00:02Z,1623330003,2021,13,0,161.5417,161.5417,73.01208,-150.15109,1008.4,-999.00,-999.0,yes,no,no,300534060525340,ITB,USIABP,Utqiagvik,North
2021-06-10T13:59:57Z,1623333597,2021,14,0,161.5833,161.5833,73.01313,-150.16006,1008.4,-999.00,-999.0,yes,no,no,300534060525340,ITB,USIABP,Utqiagvik,North
2021-06-10T15:00:00Z,1623337200,2021,15,0,161.625,161.625,73.01411,-150.16834,1008.8,-999.00,-999.0,yes,no,no,300534060525340,ITB,USIABP,Utqiagvik,North
2021-06-10T16:00:02Z,1623340803,2021,16,0,161.6667,161.6667,73.01491,-150.17612,1008.6,-999.00,-999.0,yes,no,no,300534060525340,ITB,USIABP,Utqiagvik,North
2021-06-10T16:59:57Z,1623344397,2021,17,0,161.7083,161.7083,73.01556,-150.18368,1008.8,-999.00,-999.0,yes,no,no,300534060525340,ITB,USIABP,Utqiagvik,North
2021-06-10T18:00:00Z,1623348000,2021,18,0,161.75,161.75,73.01613,-150.19137,1009.0,-999.00,-999.0,yes,no,no,300534060525340,ITB,USIABP,Utqiagvik,North
2021-06-10T19:00:02Z,1623351603,2021,19,0,161.7917,161.7917,73.01671,-150.19933,1009.0,-999.00,-999.0,yes,no,no,300534060525340,ITB,USIABP,Utqiagvik,North
2021-06-10T19:59:57Z,1623355197,2021,20,0,161.8333,161.8333,73.01731,-150.20755,1009.0,-999.00,-999.0,yes,no,no,300534060525340,ITB,USIABP,Utqiagvik,North
2021-06-10T21:00:00Z,1623358800,2021,21,0,161.875,161.875,73.01807,-150.21593,1009.3,-999.00,-999.0,yes,no,no,300534060525340,ITB,USIABP,Utqiagvik,North
2021-06-10T22:00:02Z,1623362403,2021,22,0,161.9167,161.9167,73.01895,-150.22396,1009.5,-999.00,-999.0,yes,no,no,300534060525340,ITB,USIABP,Utqiagvik,North
2021-06-10T22:59:57Z,1623365997,2021,23,0,161.9583,161.9583,73.02005,-150.23122,1009.5,-999.00,-999.0,yes,no,no,300534060525340,ITB,USIABP,Utqiagvik,North
2021-06-11T00:00:00Z,1623369600,2021,0,0,162.0,162.0,73.02114,-150.23791,1010.0,-999.00,-999.0,yes,no,no,300534060525340,ITB,USIABP,Utqiagvik,North
2021-06-11T01:00:02Z,1623373203,2021,1,0,162.0417,162.0417,73.02223,-150.24393,1010.2,-999.00,-999.0,yes,no,no,300534060525340,ITB,USIABP,Utqiagvik,North
2021-06-11T01:59:57Z,1623376797,2021,2,0,162.0833,162.0833,73.02321,-150.24914,1010.2,-999.00,-999.0,yes,no,no,300534060525340,ITB,USIABP,Utqiagvik,North
2021-06-11T03:00:00Z,1623380400,2021,3,0,162.125,162.125,73.0241,-150.25369,1010.7,-999.00,-999.0,yes,no,no,300534060525340,ITB,USIABP,Utqiagvik,North
2021-06-11T04:00:02Z,1623384003,2021,4,0,162.1667,162.1667,73.02483,-150.25775,1010.2,-999.00,-999.0,yes,no,no,300534060525340,ITB,USIABP,Utqiagvik,North
2021-06-11T04:59:57Z,1623387597,2021,5,0,162.2083,162.2083,73.02531,-150.26135,1010.5,-999.00,-999.0,yes,no,no,300534060525340,ITB,USIABP,Utqiagvik,North
2021-06-11T06:00:00Z,1623391200,2021,6,0,162.25,162.25,73.02552,-150.26493,1010.9,-999.00,-999.0,yes,no,no,300534060525340,ITB,USIABP,Utqiagvik,North
2021-06-11T07:00:02Z,1623394803,2021,7,0,162.2917,162.2917,73.02551,-150.26831,1011.3,-999.00,-999.0,yes,no,no,300534060525340,ITB,USIABP,Utqiagvik,North
2021-06-11T07:59:57Z,1623398397,2021,8,0,162.3333,162.3333,73.02537,-150.27154,1011.9,-999.00,-999.0,yes,no,no,300534060525340,ITB,USIABP,Utqiagvik,North
2021-06-11T09:00:00Z,1623402000,2021,9,0,162.375,162.375,73.02514,-150.27515,1012.5,-999.00,-999.0,yes,no,no,300534060525340,ITB,USIABP,Utqiagvik,North
2021-06-11T10:00:02Z,1623405603,2021,10,0,162.4167,162.4167,73.02492,-150.27929,1013.5,-999.00,-999.0,yes,no,no,300534060525340,ITB,USIABP,Utqiagvik,North
2021-06-11T10:59:57Z,1623409197,2021,11,0,162.4583,162.4583,73.02471,-150.28401,1013.9,-999.00,-999.0,yes,no,no,300534060525340,ITB,USIABP,Utqiagvik,North
2021-06-11T12:00:00Z,1623412800,2021,12,0,162.5,162.5,73.02457,-150.289,1014.0,-999.00,-999.0,yes,no,no,300534060525340,ITB,USIABP,Utqiagvik,North
2021-06-11T13:00:02Z,1623416403,2021,13,0,162.5417,162.5417,73.02454,-150.29417,1013.9,-999.00,-999.0,yes,no,no,300534060525340,ITB,USIABP,Utqiagvik,North
2021-06-11T13:59:57Z,1623419997,2021,14,0,162.5833,162.5833,73.02464,-150.29911,1014.1,-999.00,-999.0,yes,no,no,300534060525340,ITB,USIABP,Utqiagvik,North
2021-06-11T15:00:00Z,1623423600,2021,15,0,162.625,162.625,73.02481,-150.30366,1014.6,-999.00,-999.0,yes,no,no,300534060525340,ITB,USIABP,Utqiagvik,North
2021-06-11T16:00:02Z,1623427203,2021,16,0,162.6667,162.6667,73.02501,-150.30775,1014.2,-999.00,-999.0,yes,no,no,300534060525340,ITB,USIABP,Utqiagvik,North
2021-06-11T16:59:57Z,1623430797,2021,17,0,162.7083,162.7083,73.02523,-150.31146,1014.3,-999.00,-999.0,yes,no,no,300534060525340,ITB,USIABP,Utqiagvik,North
2021-06-11T18:00:00Z,1623434400,2021,18,0,162.75,162.75,73.02544,-150.31478,1014.3,-999.00,-999.0,yes,no,no,300534060525340,ITB,USIABP,Utqiagvik,North
2021-06-11T19:00:02Z,1623438003,2021,19,0,162.7917,162.7917,73.0257,-150.31774,1014.3,-999.00,-999.0,yes,no,no,300534060525340,ITB,USIABP,Utqiagvik,North
2021-06-11T19:59:57Z,1623441597,2021,20,0,162.8333,162.8333,73.02585,-150.32027,1014.7,-999.00,-999.0,yes,no,no,300534060525340,ITB,USIABP,Utqiagvik,North
2021-06-11T21:00:00Z,1623445200,2021,21,0,162.875,162.875,73.02598,-150.32276,1014.7,-999.00,-999.0,yes,no,no,300534060525340,ITB,USIABP,Utqiagvik,North
2021-06-11T22:00:02Z,1623448803,2021,22,0,162.9167,162.9167,73.02609,-150.32587,1014.4,-999.00,-999.0,yes,no,no,300534060525340,ITB,USIABP,Utqiagvik,North
2021-06-11T22:59:57Z,1623452397,2021,23,0,162.9583,162.9583,73.02611,-150.32964,1014.5,-999.00,-999.0,yes,no,no,300534060525340,ITB,USIABP,Utqiagvik,North
2021-06-12T00:00:00Z,1623456000,2021,0,0,163.0,163.0,73.02616,-150.33389,1014.5,-999.00,-999.0,yes,no,no,300534060525340,ITB,USIABP,Utqiagvik,North
2021-06-12T01:00:02Z,1623459603,2021,1,0,163.0417,163.0417,73.02629,-150.33811,1014.5,-999.00,-999.0,yes,no,no,300534060525340,ITB,USIABP,Utqiagvik,North
2021-06-12T01:59:57Z,1623463197,2021,2,0,163.0833,163.0833,73.02656,-150.3418,1014.3,-999.00,-999.0,yes,no,no,300534060525340,ITB,USIABP,Utqiagvik,North
2021-06-12T03:00:00Z,1623466800,2021,3,0,163.125,163.125,73.02679,-150.34413,1015.0,-999.00,-999.0,yes,no,no,300534060525340,ITB,USIABP,Utqiagvik,North
2021-06-12T04:00:02Z,1623470403,2021,4,0,163.1667,163.1667,73.02698,-150.34566,1015.0,-999.00,-999.0,yes,no,no,300534060525340,ITB,USIABP,Utqiagvik,North
2021-06-12T04:59:57Z,1623473997,2021,5,0,163.2083,163.2083,73.02704,-150.3464,1015.3,-999.00,-999.0,yes,no,no,300534060525340,ITB,USIABP,Utqiagvik,North
2021-06-12T06:00:00Z,1623477600,2021,6,0,163.25,163.25,73.02699,-150.34736,1015.8,-999.00,-999.0,yes,no,no,300534060525340,ITB,USIABP,Utqiagvik,North
2021-06-12T07:00:02Z,1623481203,2021,7,0,163.2917,163.2917,73.02683,-150.34821,1015.9,-999.00,-999.0,yes,no,no,300534060525340,ITB,USIABP,Utqiagvik,North
2021-06-12T07:59:57Z,1623484797,2021,8,0,163.3333,163.3333,73.02654,-150.34895,1016.5,-999.00,-999.0,yes,no,no,300534060525340,ITB,USIABP,Utqiagvik,North
2021-06-12T09:00:00Z,1623488400,2021,9,0,163.375,163.375,73.02621,-150.34972,1016.7,-999.00,-999.0,yes,no,no,300534060525340,ITB,USIABP,Utqiagvik,North
2021-06-12T10:00:02Z,1623492003,2021,10,0,163.4167,163.4167,73.02596,-150.35057,1016.8,-999.00,-999.0,yes,no,no,300534060525340,ITB,USIABP,Utqiagvik,North
2021-06-12T10:59:57Z,1623495597,2021,11,0,163.4583,163.4583,73.02569,-150.35174,1016.9,-999.00,-999.0,yes,no,no,300534060525340,ITB,USIABP,Utqiagvik,North
2021-06-12T12:00:00Z,1623499200,2021,12,0,163.5,163.5,73.02545,-150.35323,1016.9,-999.00,-999.0,yes,no,no,300534060525340,ITB,USIABP,Utqiagvik,North
2021-06-12T13:00:02Z,1623502803,2021,13,0,163.5417,163.5417,73.02524,-150.35517,1017.1,-999.00,-999.0,yes,no,no,300534060525340,ITB,USIABP,Utqiagvik,North
2021-06-12T13:59:57Z,1623506397,2021,14,0,163.5833,163.5833,73.02508,-150.35764,1017.1,-999.00,-999.0,yes,no,no,300534060525340,ITB,USIABP,Utqiagvik,North
2021-06-12T15:00:00Z,1623510000,2021,15,0,163.625,163.625,73.02489,-150.36071,1017.1,-999.00,-999.0,yes,no,no,300534060525340,ITB,USIABP,Utqiagvik,North
2021-06-12T16:00:02Z,1623513603,2021,16,0,163.6667,163.6667,73.02474,-150.36367,1017.2,-999.00,-999.0,yes,no,no,300534060525340,ITB,USIABP,Utqiagvik,North
2021-06-12T16:59:57Z,1623517197,2021,17,0,163.7083,163.7083,73.02467,-150.3664,1017.3,-999.00,-999.0,yes,no,no,300534060525340,ITB,USIABP,Utqiagvik,North
2021-06-12T18:00:00Z,1623520800,2021,18,0,163.75,163.75,73.02451,-150.36908,1017.7,-999.00,-999.0,yes,no,no,300534060525340,ITB,USIABP,Utqiagvik,North
2021-06-12T19:00:02Z,1623524403,2021,19,0,163.7917,163.7917,73.02431,-150.37147,1017.7,-999.00,-999.0,yes,no,no,300534060525340,ITB,USIABP,Utqiagvik,North
2021-06-12T19:59:57Z,1623527997,2021,20,0,163.8333,163.8333,73.02416,-150.37373,1017.8,-999.00,-999.0,yes,no,no,300534060525340,ITB,USIABP,Utqiagvik,North
2021-06-12T21:00:00Z,1623531600,2021,21,0,163.875,163.875,73.02396,-150.37592,1017.9,-999.00,-999.0,yes,no,no,300534060525340,ITB,USIABP,Utqiagvik,North
2021-06-12T22:00:02Z,1623535203,2021,22,0,163.9167,163.9167,73.02367,-150.37819,1018.2,-999.00,-999.0,yes,no,no,300534060525340,ITB,USIABP,Utqiagvik,North
2021-06-12T22:59:57Z,1623538797,2021,23,0,163.9583,163.9583,73.02315,-150.38117,1018.2,-999.00,-999.0,yes,no,no,300534060525340,ITB,USIABP,Utqiagvik,North
2021-06-13T00:00:00Z,1623542400,2021,0,0,164.0,164.0,73.02255,-150.38549,1018.4,-999.00,-999.0,yes,no,no,300534060525340,ITB,USIABP,Utqiagvik,North
2021-06-13T01:00:02Z,1623546003,2021,1,0,164.0417,164.0417,73.02187,-150.3913,1018.5,-999.00,-999.0,yes,no,no,300534060525340,ITB,USIABP,Utqiagvik,North
2021-06-13T01:59:57Z,1623549597,2021,2,0,164.0833,164.0833,73.02135,-150.39814,1018.5,-999.00,-999.0,yes,no,no,300534060525340,ITB,USIABP,Utqiagvik,North
2021-06-13T03:00:00Z,1623553200,2021,3,0,164.125,164.125,73.02103,-150.40616,1018.9,-999.00,-999.0,yes,no,no,300534060525340,ITB,USIABP,Utqiagvik,North
2021-06-13T04:00:02Z,1623556803,2021,4,0,164.1667,164.1667,73.02102,-150.41487,1018.8,-999.00,-999.0,yes,no,no,300534060525340,ITB,USIABP,Utqiagvik,North
2021-06-13T04:59:57Z,1623560397,2021,5,0,164.2083,164.2083,73.02107,-150.42349,1018.8,-999.00,-999.0,yes,no,no,300534060525340,ITB,USIABP,Utqiagvik,North
2021-06-13T06:00:00Z,1623564000,2021,6,0,164.25,164.25,73.02126,-150.43192,1018.9,-999.00,-999.0,yes,no,no,300534060525340,ITB,USIABP,Utqiagvik,North
2021-06-13T07:00:02Z,1623567603,2021,7,0,164.2917,164.2917,73.02145,-150.43979,1018.8,-999.00,-999.0,yes,no,no,300534060525340,ITB,USIABP,Utqiagvik,North
2021-06-13T07:59:57Z,1623571197,2021,8,0,164.3333,164.3333,73.02158,-150.44686,1018.9,-999.00,-999.0,yes,no,no,300534060525340,ITB,USIABP,Utqiagvik,North
2021-06-13T09:00:00Z,1623574800,2021,9,0,164.375,164.375,73.02171,-150.45386,1018.9,-999.00,-999.0,yes,no,no,300534060525340,ITB,USIABP,Utqiagvik,North
2021-06-13T10:00:02Z,1623578403,2021,10,0,164.4167,164.4167,73.02173,-150.4609,1018.8,-999.00,-999.0,yes,no,no,300534060525340,ITB,USIABP,Utqiagvik,North
2021-06-13T10:59:57Z,1623581997,2021,11,0,164.4583,164.4583,73.0216,-150.46829,1018.8,-999.00,-999.0,yes,no,no,300534060525340,ITB,USIABP,Utqiagvik,North
2021-06-13T12:00:00Z,1623585600,2021,12,0,164.5,164.5,73.02129,-150.47635,1018.9,-999.00,-999.0,yes,no,no,300534060525340,ITB,USIABP,Utqiagvik,North
2021-06-13T13:00:02Z,1623589203,2021,13,0,164.5417,164.5417,73.02076,-150.48485,1018.8,-999.00,-999.0,yes,no,no,300534060525340,ITB,USIABP,Utqiagvik,North
2021-06-13T13:59:57Z,1623592797,2021,14,0,164.5833,164.5833,73.01998,-150.4931,1018.6,-999.00,-999.0,yes,no,no,300534060525340,ITB,USIABP,Utqiagvik,North
2021-06-13T15:00:00Z,1623596400,2021,15,0,164.625,164.625,73.01926,-150.50234,1018.6,-999.00,-999.0,yes,no,no,300534060525340,ITB,USIABP,Utqiagvik,North
2021-06-13T16:00:02Z,1623600003,2021,16,0,164.6667,164.6667,73.01865,-150.51265,1018.5,-999.00,-999.0,yes,no,no,300534060525340,ITB,USIABP,Utqiagvik,North
2021-06-13T16:59:57Z,1623603597,2021,17,0,164.7083,164.7083,73.01824,-150.52398,1018.3,-999.00,-999.0,yes,no,no,300534060525340,ITB,USIABP,Utqiagvik,North
2021-06-13T18:00:00Z,1623607200,2021,18,0,164.75,164.75,73.01805,-150.53599,1017.9,-999.00,-999.0,yes,no,no,300534060525340,ITB,USIABP,Utqiagvik,North
2021-06-13T19:00:02Z,1623610803,2021,19,0,164.7917,164.7917,73.01806,-150.54774,1017.9,-999.00,-999.0,yes,no,no,300534060525340,ITB,USIABP,Utqiagvik,North
2021-06-13T19:59:57Z,1623614397,2021,20,0,164.8333,164.8333,73.01816,-150.5586,1017.9,-999.00,-999.0,yes,no,no,300534060525340,ITB,USIABP,Utqiagvik,North
2021-06-13T21:00:00Z,1623618000,2021,21,0,164.875,164.875,73.01833,-150.56871,1017.7,-999.00,-999.0,yes,no,no,300534060525340,ITB,USIABP,Utqiagvik,North
2021-06-13T22:00:02Z,1623621603,2021,22,0,164.9167,164.9167,73.01853,-150.57794,1017.4,-999.00,-999.0,yes,no,no,300534060525340,ITB,USIABP,Utqiagvik,North
2021-06-13T22:59:57Z,1623625197,2021,23,0,164.9583,164.9583,73.01858,-150.58627,1017.6,-999.00,-999.0,yes,no,no,300534060525340,ITB,USIABP,Utqiagvik,North
2021-06-14T00:00:00Z,1623628800,2021,0,0,165.0,165.0,73.01844,-150.59456,1017.7,-999.00,-999.0,yes,no,no,300534060525340,ITB,USIABP,Utqiagvik,North
2021-06-14T01:00:02Z,1623632403,2021,1,0,165.0417,165.0417,73.01801,-150.60347,1017.6,-999.00,-999.0,yes,no,no,300534060525340,ITB,USIABP,Utqiagvik,North
2021-06-14T01:59:57Z,1623635997,2021,2,0,165.0833,165.0833,73.01737,-150.61327,1017.6,-999.00,-999.0,yes,no,no,300534060525340,ITB,USIABP,Utqiagvik,North
2021-06-14T03:00:00Z,1623639600,2021,3,0,165.125,165.125,73.01655,-150.62475,1017.6,-999.00,-999.0,yes,no,no,300534060525340,ITB,USIABP,Utqiagvik,North
2021-06-14T04:00:02Z,1623643203,2021,4,0,165.1667,165.1667,73.01583,-150.63874,1017.5,-999.00,-999.0,yes,no,no,300534060525340,ITB,USIABP,Utqiagvik,North
2021-06-14T04:59:57Z,1623646797,2021,5,0,165.2083,165.2083,73.01548,-150.65414,1017.5,-999.00,-999.0,yes,no,no,300534060525340,ITB,USIABP,Utqiagvik,North
2021-06-14T06:00:00Z,1623650400,2021,6,0,165.25,165.25,73.01574,-150.67074,1017.7,-999.00,-999.0,yes,no,no,300534060525340,ITB,USIABP,Utqiagvik,North
2021-06-14T07:00:02Z,1623654003,2021,7,0,165.2917,165.2917,73.01659,-150.68671,1018.0,-999.00,-999.0,yes,no,no,300534060525340,ITB,USIABP,Utqiagvik,North
2021-06-14T07:59:57Z,1623657597,2021,8,0,165.3333,165.3333,73.01786,-150.70067,1018.0,-999.00,-999.0,yes,no,no,300534060525340,ITB,USIABP,Utqiagvik,North
2021-06-14T09:00:00Z,1623661200,2021,9,0,165.375,165.375,73.01947,-150.71312,1017.8,-999.00,-999.0,yes,no,no,300534060525340,ITB,USIABP,Utqiagvik,North
2021-06-14T10:00:02Z,1623664803,2021,10,0,165.4167,165.4167,73.02089,-150.72285,1017.9,-999.00,-999.0,yes,no,no,300534060525340,ITB,USIABP,Utqiagvik,North
2021-06-14T10:59:57Z,1623668397,2021,11,0,165.4583,165.4583,73.02248,-150.73179,1017.8,-999.00,-999.0,yes,no,no,300534060525340,ITB,USIABP,Utqiagvik,North
2021-06-14T12:00:00Z,1623672000,2021,12,0,165.5,165.5,73.02403,-150.74036,1017.7,-999.00,-999.0,yes,no,no,300534060525340,ITB,USIABP,Utqiagvik,North
2021-06-14T13:00:02Z,1623675603,2021,13,0,165.5417,165.5417,73.02547,-150.74944,1017.7,-999.00,-999.0,yes,no,no,300534060525340,ITB,USIABP,Utqiagvik,North
2021-06-14T13:59:57Z,1623679197,2021,14,0,165.5833,165.5833,73.02683,-150.75944,1017.6,-999.00,-999.0,yes,no,no,300534060525340,ITB,USIABP,Utqiagvik,North
2021-06-14T15:00:00Z,1623682800,2021,15,0,165.625,165.625,73.02829,-150.77041,1017.1,-999.00,-999.0,yes,no,no,300534060525340,ITB,USIABP,Utqiagvik,North
2021-06-14T16:00:02Z,1623686403,2021,16,0,165.6667,165.6667,73.03006,-150.78235,1017.0,-999.00,-999.0,yes,no,no,300534060525340,ITB,USIABP,Utqiagvik,North
2021-06-14T16:59:57Z,1623689997,2021,17,0,165.7083,165.7083,73.03211,-150.79579,1016.7,-999.00,-999.0,yes,no,no,300534060525340,ITB,USIABP,Utqiagvik,North
2021-06-14T18:00:00Z,1623693600,2021,18,0,165.75,165.75,73.03465,-150.80988,1016.7,-999.00,-999.0,yes,no,no,300534060525340,ITB,USIABP,Utqiagvik,North
2021-06-14T19:00:02Z,1623697203,2021,19,0,165.7917,165.7917,73.03784,-150.8253,1016.6,-999.00,-999.0,yes,no,no,300534060525340,ITB,USIABP,Utqiagvik,North
2021-06-14T19:59:57Z,1623700797,2021,20,0,165.8333,165.8333,73.04137,-150.83993,1016.3,-999.00,-999.0,yes,no,no,300534060525340,ITB,USIABP,Utqiagvik,North
2021-06-14T21:00:00Z,1623704400,2021,21,0,165.875,165.875,73.04532,-150.85331,1016.0,-999.00,-999.0,yes,no,no,300534060525340,ITB,USIABP,Utqiagvik,North
2021-06-14T22:00:02Z,1623708003,2021,22,0,165.9167,165.9167,73.04951,-150.86624,1015.1,-999.00,-999.0,yes,no,no,300534060525340,ITB,USIABP,Utqiagvik,North
2021-06-14T22:59:57Z,1623711597,2021,23,0,165.9583,165.9583,73.05382,-150.87813,1014.8,-999.00,-999.0,yes,no,no,300534060525340,ITB,USIABP,Utqiagvik,North
2021-06-15T00:00:00Z,1623715200,2021,0,0,166.0,166.0,73.05786,-150.88882,1014.3,-999.00,-999.0,yes,no,no,300534060525340,ITB,USIABP,Utqiagvik,North
2021-06-15T01:00:02Z,1623718803,2021,1,0,166.0417,166.0417,73.06193,-150.89947,1013.8,-999.00,-999.0,yes,no,no,300534060525340,ITB,USIABP,Utqiagvik,North
2021-06-15T01:59:57Z,1623722397,2021,2,0,166.0833,166.0833,73.06597,-150.90932,1013.9,-999.00,-999.0,yes,no,no,300534060525340,ITB,USIABP,Utqiagvik,North
2021-06-15T03:00:00Z,1623726000,2021,3,0,166.125,166.125,73.07011,-150.92092,1013.4,-999.00,-999.0,yes,no,no,300534060525340,ITB,USIABP,Utqiagvik,North
2021-06-15T04:00:02Z,1623729603,2021,4,0,166.1667,166.1667,73.07448,-150.93422,1012.8,-999.00,-999.0,yes,no,no,300534060525340,ITB,USIABP,Utqiagvik,North
2021-06-15T04:59:57Z,1623733197,2021,5,0,166.2083,166.2083,73.07909,-150.94914,1011.8,-999.00,-999.0,yes,no,no,300534060525340,ITB,USIABP,Utqiagvik,North
2021-06-15T06:00:00Z,1623736800,2021,6,0,166.25,166.25,73.08398,-150.9644,1011.8,-999.00,-999.0,yes,no,no,300534060525340,ITB,USIABP,Utqiagvik,North
2021-06-15T07:00:02Z,1623740403,2021,7,0,166.2917,166.2917,73.08915,-150.97855,1011.6,-999.00,-999.0,yes,no,no,300534060525340,ITB,USIABP,Utqiagvik,North
2021-06-15T07:59:57Z,1623743997,2021,8,0,166.3333,166.3333,73.0943,-150.9915,1010.8,-999.00,-999.0,yes,no,no,300534060525340,ITB,USIABP,Utqiagvik,North
2021-06-15T09:00:00Z,1623747600,2021,9,0,166.375,166.375,73.09978,-151.00425,1010.4,-999.00,-999.0,yes,no,no,300534060525340,ITB,USIABP,Utqiagvik,North
2021-06-15T10:00:02Z,1623751203,2021,10,0,166.4167,166.4167,73.10453,-151.01372,1010.0,-999.00,-999.0,yes,no,no,300534060525340,ITB,USIABP,Utqiagvik,North
2021-06-15T10:59:57Z,1623754797,2021,11,0,166.4583,166.4583,73.10919,-151.02286,1009.4,-999.00,-999.0,yes,no,no,300534060525340,ITB,USIABP,Utqiagvik,North
2021-06-15T12:00:00Z,1623758400,2021,12,0,166.5,166.5,73.11379,-151.03219,1008.5,-999.00,-999.0,yes,no,no,300534060525340,ITB,USIABP,Utqiagvik,North
2021-06-15T13:00:02Z,1623762003,2021,13,0,166.5417,166.5417,73.11808,-151.04146,1007.7,-999.00,-999.0,yes,no,no,300534060525340,ITB,USIABP,Utqiagvik,North
2021-06-15T13:59:57Z,1623765597,2021,14,0,166.5833,166.5833,73.12239,-151.05108,1007.8,-999.00,-999.0,yes,no,no,300534060525340,ITB,USIABP,Utqiagvik,North
2021-06-15T15:00:00Z,1623769200,2021,15,0,166.625,166.625,73.12666,-151.06148,1006.7,-999.00,-999.0,yes,no,no,300534060525340,ITB,USIABP,Utqiagvik,North
2021-06-15T16:00:02Z,1623772803,2021,16,0,166.6667,166.6667,73.13115,-151.07198,1005.6,-999.00,-999.0,yes,no,no,300534060525340,ITB,USIABP,Utqiagvik,North
2021-06-15T16:59:57Z,1623776397,2021,17,0,166.7083,166.7083,73.13582,-151.08082,1004.3,-999.00,-999.0,yes,no,no,300534060525340,ITB,USIABP,Utqiagvik,North
2021-06-15T18:00:00Z,1623780000,2021,18,0,166.75,166.75,73.14086,-151.08614,1004.2,-999.00,-999.0,yes,no,no,300534060525340,ITB,USIABP,Utqiagvik,North
2021-06-15T19:00:02Z,1623783603,2021,19,0,166.7917,166.7917,73.14537,-151.08855,1002.9,-999.00,-999.0,yes,no,no,300534060525340,ITB,USIABP,Utqiagvik,North
2021-06-15T19:59:57Z,1623787197,2021,20,0,166.8333,166.8333,73.14959,-151.08665,1004.2,-999.00,-999.0,yes,no,no,300534060525340,ITB,USIABP,Utqiagvik,North
2021-06-15T21:00:00Z,1623790800,2021,21,0,166.875,166.875,73.15269,-151.08208,1004.1,-999.00,-999.0,yes,no,no,300534060525340,ITB,USIABP,Utqiagvik,North
2021-06-15T22:00:02Z,1623794403,2021,22,0,166.9167,166.9167,73.15426,-151.07466,1004.6,-999.00,-999.0,yes,no,no,300534060525340,ITB,USIABP,Utqiagvik,North
2021-06-15T22:59:57Z,1623797997,2021,23,0,166.9583,166.9583,73.15439,-151.06454,1005.2,-999.00,-999.0,yes,no,no,300534060525340,ITB,USIABP,Utqiagvik,North
2021-06-16T00:00:00Z,1623801600,2021,0,0,167.0,167.0,73.15305,-151.05385,1005.3,-999.00,-999.0,yes,no,no,300534060525340,ITB,USIABP,Utqiagvik,North
2021-06-16T01:00:02Z,1623805203,2021,1,0,167.0417,167.0417,73.15064,-151.04439,1005.8,-999.00,-999.0,yes,no,no,300534060525340,ITB,USIABP,Utqiagvik,North
2021-06-16T01:59:57Z,1623808797,2021,2,0,167.0833,167.0833,73.14816,-151.03555,1006.1,-999.00,-999.0,yes,no,no,300534060525340,ITB,USIABP,Utqiagvik,North
2021-06-16T03:00:00Z,1623812400,2021,3,0,167.125,167.125,73.14617,-151.02478,1006.9,-999.00,-999.0,yes,no,no,300534060525340,ITB,USIABP,Utqiagvik,North
2021-06-16T04:00:02Z,1623816003,2021,4,0,167.1667,167.1667,73.14463,-151.0113,1008.0,-999.00,-999.0,yes,no,no,300534060525340,ITB,USIABP,Utqiagvik,North
2021-06-16T04:59:57Z,1623819597,2021,5,0,167.2083,167.2083,73.14381,-150.99667,1008.5,-999.00,-999.0,yes,no,no,300534060525340,ITB,USIABP,Utqiagvik,North
2021-06-16T06:00:00Z,1623823200,2021,6,0,167.25,167.25,73.14364,-150.98153,1009.2,-999.00,-999.0,yes,no,no,300534060525340,ITB,USIABP,Utqiagvik,North
2021-06-16T07:00:02Z,1623826803,2021,7,0,167.2917,167.2917,73.14363,-150.96516,1010.2,-999.00,-999.0,yes,no,no,300534060525340,ITB,USIABP,Utqiagvik,North
2021-06-16T07:59:57Z,1623830397,2021,8,0,167.3333,167.3333,73.14363,-150.9486,1010.7,-999.00,-999.0,yes,no,no,300534060525340,ITB,USIABP,Utqiagvik,North
2021-06-16T09:00:00Z,1623834000,2021,9,0,167.375,167.375,73.14333,-150.93255,1011.2,-999.00,-999.0,yes,no,no,300534060525340,ITB,USIABP,Utqiagvik,North
2021-06-16T10:00:02Z,1623837603,2021,10,0,167.4167,167.4167,73.14263,-150.91756,1011.7,-999.00,-999.0,yes,no,no,300534060525340,ITB,USIABP,Utqiagvik,North
2021-06-16T10:59:57Z,1623841197,2021,11,0,167.4583,167.4583,73.14145,-150.90382,1012.1,-999.00,-999.0,yes,no,no,300534060525340,ITB,USIABP,Utqiagvik,North